• MPC Preparation (Info)

  • MPEC 2016-N119: 2010 VL201

    The following Minor Planet Electronic Circular may be linked-to from your own Web pages, but must not otherwise be redistributed electronically.

    A form allowing access to any MPEC is at the bottom of this page.


    Read MPEC 2016-N118 Read MPEC 2016-N120


    M.P.E.C. 2016-N119                               Issued 2016 July 15, 03:17 UT
    
         The Minor Planet Electronic Circulars contain information on unusual
             minor planets and routine data on comets.  They are published
        on behalf of Division F of the International Astronomical Union by the
              Minor Planet Center, Smithsonian Astrophysical Observatory,
                              Cambridge, MA 02138, U.S.A.
    
                 Prepared using the Tamkin Foundation Computer Network
    
                                  MPC@CFA.HARVARD.EDU
                URL https://www.minorplanetcenter.net/    ISSN 1523-6714
    
                                      2010 VL201
    
    Additional Observations:
         K10VK1L  C2012 10 18.39491 03 15 06.340+13 15 10.32         21.2 wLEN119F51
         K10VK1L  C2012 10 18.42521 03 15 06.188+13 15 09.71         21.1 wLEN119F51
         K10VK1L  C2012 10 18.44048 03 15 06.104+13 15 09.32         21.3 wLEN119F51
         K10VK1L  C2012 11 08.38538 03 13 11.199+13 07 09.82         21.6 gLEN119F51
         K10VK1L  C2012 11 08.39773 03 13 11.147+13 07 09.99         21.6 gLEN119F51
         K10VK1L  C2012 11 08.51356 03 13 10.437+13 07 06.84         21.4 rLEN119F51
         K10VK1L  C2012 11 08.52518 03 13 10.371+13 07 06.47         21.2 rLEN119F51
         K10VK1L  C2012 12 07.24107 03 10 30.448+12 57 41.07         21.3 wLEN119F51
         K10VK1L  C2012 12 07.25611 03 10 30.370+12 57 40.88         21.4 wLEN119F51
         K10VK1L  C2012 12 07.27111 03 10 30.285+12 57 40.59         21.3 wLEN119F51
         K10VK1L  C2012 12 07.28615 03 10 30.212+12 57 40.35         21.3 wLEN119F51
         K10VK1L  C2013 03 04.23217 03 09 00.351+13 03 27.22         21.3 wLEN119F51
         K10VK1L  C2013 03 04.23744 03 09 00.377+13 03 27.25         21.5 wLEN119F51
         K10VK1L  C2013 03 04.24271 03 09 00.415+13 03 27.45         21.2 wLEN119F51
         K10VK1L  C2013 03 04.24799 03 09 00.427+13 03 27.76         21.2 wLEN119F51
         K10VK1L  C2014 10 07.40205 03 30 09.421+14 26 17.61         20.6 iLEN119F51
         K10VK1L  C2014 10 07.41489 03 30 09.389+14 26 17.13         21.1 iLEN119F51
         K10VK1L  C2014 10 07.42748 03 30 09.313+14 26 17.09         20.8 iLEN119F51
         K10VK1L  C2014 10 07.44000 03 30 09.270+14 26 16.81         20.9 iLEN119F51
         K10VK1L  C2014 10 25.51857 03 28 43.268+14 20 09.09         21.2 wLEN119F51
         K10VK1L  C2014 10 25.53154 03 28 43.184+14 20 08.88         21.1 wLEN119F51
         K10VK1L  C2014 10 25.54447 03 28 43.115+14 20 08.90         21.2 wLEN119F51
         K10VK1L  C2014 10 25.55740 03 28 43.044+14 20 08.49         21.1 wLEN119F51
         K10VK1L  C2014 11 18.30570 03 26 28.390+14 11 48.24         21.2 wLEN119F51
         K10VK1L  C2014 11 18.30635 03 26 28.368+14 11 47.84         21.1 wLEN119F51
         K10VK1L  C2014 11 18.31717 03 26 28.325+14 11 48.19         21.2 wLEN119F51
         K10VK1L  C2014 11 18.31782 03 26 28.307+14 11 47.99         21.2 wLEN119F51
         K10VK1L  C2014 11 18.32837 03 26 28.252+14 11 47.74         21.1 wLEN119F51
         K10VK1L  C2014 11 18.32903 03 26 28.281+14 11 47.62         21.2 wLEN119F51
         K10VK1L  C2014 11 18.33957 03 26 28.143+14 11 47.70         20.9 wLEN119F51
         K10VK1L  C2014 11 26.30008 03 25 42.042+14 09 13.20         21.1 wLEN119F51
         K10VK1L  C2014 11 26.31131 03 25 41.958+14 09 13.12         20.9 wLEN119F51
         K10VK1L  C2014 11 26.33370 03 25 41.854+14 09 12.84         20.8 wLEN119F51
         K10VK1L  C2015 01 15.32675 03 22 06.644+14 00 37.00         21.4 wLEN119F51
         K10VK1L  C2015 01 15.33844 03 22 06.617+14 00 36.99         21.3 wLEN119F51
         K10VK1L  C2015 01 15.35015 03 22 06.592+14 00 37.00         21.4 wLEN119F51
         K10VK1L  C2015 01 15.36190 03 22 06.568+14 00 37.03         21.2 wLEN119F51
         K10VK1L  C2015 01 17.29866 03 22 02.604+14 00 38.18         21.2 wLEN119F51
         K10VK1L  C2015 01 17.31243 03 22 02.577+14 00 38.20         21.4 wLEN119F51
         K10VK1L  C2015 01 17.32622 03 22 02.553+14 00 38.18         21.4 wLEN119F51
         K10VK1L  C2015 01 17.34007 03 22 02.523+14 00 38.21         21.4 wLEN119F51
         K10VK1L  C2015 03 14.23794 03 23 14.143+14 13 12.47         21.2 wLEN119F51
         K10VK1L  C2015 03 14.24195 03 23 14.157+14 13 12.52         21.7 wLEN119F51
         K10VK1L  C2015 03 14.24597 03 23 14.180+14 13 12.76         21.3 wLEN119F51
         K10VK1L  C2015 03 14.25004 03 23 14.191+14 13 13.01         21.4 wLEN119F51
         K10VK1L  C2015 07 24.59616 03 37 24.887+15 06 19.25         21.1 wLEN119F51
         K10VK1L  C2015 07 24.59979 03 37 24.913+15 06 19.21         21.0 wLEN119F51
         K10VK1L  C2015 07 24.60530 03 37 24.922+15 06 19.11         21.0 wLEN119F51
         K10VK1L  C2015 07 24.60987 03 37 24.942+15 06 19.32         20.9 wLEN119F51
    
    Observer details:
    F51 Pan-STARRS 1, Haleakala.  Observers B. Gibson, T. Goggia, N. Primak,
        A. Schultz, M. Willman.  Measurers K. Chambers, S. Chastel, Y.-T. Chen,
        L. Denneau, H. Flewelling, M. Holman, M. Huber, R. Jedicke, M. Lackner,
        E. Lilly, H.-W. Lin, E. Magnier, M. Micheli, M. Payne, P. Veres,
        R. Wainscoat, C. Waters, R. Weryk.  1.8-m Ritchey-Chretien + CCD.
    
    Orbital elements:
    2010 VL201
    Epoch 2016 July 31.0 TT = JDT 2457600.5                 MPC
    M 326.22919              (2000.0)            P               Q
    n   0.00449463     Peri.  348.47061     -0.04573501     -0.99458141
    a  36.3641696      Node   104.09910     +0.92400506     -0.07763559
    e   0.0447303      Incl.    5.52384     +0.37963530     +0.06914134
    P 219              H    5.6           G   0.15           U   2
    Residuals in seconds of arc
    101112 809  0.9+  0.0     130304 F51  0.2-  0.1-    141126 F51  0.0   0.0
    101112 809  0.3+  0.2+    130304 F51  0.1-  0.2-    141126 F51  0.2-  0.1+
    101112 809  0.2+  0.1+    130304 F51  0.2+  0.1-    141126 F51  0.2+  0.2+
    101113 809  0.3+  0.3+    130304 F51  0.1+  0.1+    150115 F51  0.1-  0.1+
    101113 809  0.3+  0.0     141007 F51  0.1-  0.0     150115 F51  0.1-  0.1+
    101113 809  0.6+  0.0     141007 F51  0.2+  0.2-    150115 F51  0.0   0.1+
    110102 688  0.8-  0.1-    141007 F51  0.2-  0.0     150115 F51  0.0   0.1+
    110102 688  0.9-  0.3+    141007 F51  0.0   0.1-    150117 F51  0.1-  0.1+
    121018 F51  0.0   0.0     141025 F51  0.3+  0.1-    150117 F51  0.1-  0.1+
    121018 F51  0.1+  0.1+    141025 F51  0.1+  0.1-    150117 F51  0.0   0.1+
    121018 F51  0.0   0.0     141025 F51  0.1+  0.2+    150117 F51  0.1-  0.1+
    121108 F51  0.0   0.0     141025 F51  0.1+  0.1+    150314 F51  0.1+  0.1-
    121108 F51  0.3+  0.5+    141118 F51  0.1+  0.0     150314 F51  0.1+  0.2-
    121108 F51  0.2-  0.1-    141118 F51  0.1-  0.3-    150314 F51  0.2+  0.0
    121108 F51  0.2-  0.2-    141118 F51  0.2+  0.2+    150314 F51  0.1+  0.1+
    121207 F51  0.1-  0.2-    141118 F51  0.0   0.0     150724 F51  0.1-  0.0
    121207 F51  0.1-  0.1-    141118 F51  0.1+  0.0     150724 F51  0.1+  0.1-
    121207 F51  0.2-  0.2-    141118 F51  0.6+  0.1-    150724 F51  0.1-  0.2-
    121207 F51  0.1-  0.2-    141118 F51  0.5-  0.2+    150724 F51  0.1-  0.1-
    
    Ephemeris:
    2010 VL201               a,e,i = 36.36, 0.04, 6                  q = 34.738
    Date    TT    R. A. (2000) Decl.     Delta      r     Elong.  Phase     V
    2016 06 15    03 40 38.1 +15 26 49  35.9340 35.0394    27.9     0.8    21.2
    ...
    2016 06 30    03 42 16.9 +15 31 39  35.7911 35.0382    41.7     1.1    21.3
    ...
    2016 07 08    03 43 03.6 +15 33 44  35.6952 35.0376    49.1     1.3    21.3
    ...
    2016 07 14    03 43 35.4 +15 35 02  35.6155 35.0372    54.6     1.4    21.3
    2016 07 15    03 43 40.4 +15 35 14  35.6016 35.0371    55.6     1.4    21.3
    2016 07 16    03 43 45.3 +15 35 26  35.5876 35.0370    56.5     1.4    21.3
    ...
    2016 07 22    03 44 12.8 +15 36 27  35.5004 35.0365    62.1     1.5    21.3
    ...
    2016 07 30    03 44 44.3 +15 37 28  35.3770 35.0359    69.6     1.6    21.3
    ...
    2016 08 14    03 45 25.4 +15 38 14  35.1303 35.0348    83.8     1.6    21.3
    
    A. U. Tomatic                (C) Copyright 2016 MPC           M.P.E.C. 2016-N119
    

    Read MPEC 2016-N118 Read MPEC 2016-N120


    MPEC number:

    Enter an MPEC number in one of the following forms:

    • 1997-B01 (the full form)
    • J97B01 (the packed version of the full form)
    • B01 (the abbreviated form)